ARKTIKA-M 2

Last updated on Tue Jul 01 2025 00:02:22 GMT+0000 (Coordinated Universal Time)

1 58584U 23198A 25181.32989940 .00000178 00000+0 00000+0 0 9998 2 58584 63.2310 192.9229 6870401 268.7722 18.5047 2.00601843 11260
UTC large
Height (km)
Speed (km/s)
/
Latitude / Longitude
Inclination (degrees)
Orbital Period (minutes)
Azimuth
Elevation
Range (km)
Doppler Factor

Next 0 passes for location: London (51.5072 / 0.1276)

Sorry there are no passes over London.